• In Portugal
  • List of Countries
  • For 7 days
  • Water Temperature
  • Satellite Maps
  • Weather Map
  • Weather Widgets
  • user-avatar
    Login

    Hourly Weather Ondjiwa

    Today, 17 July, Tuesday

    Time Temperature Precipitation Wind Pressure Humidity
    00:00 +19°C° 0 mm 4 mps 670 mmHg 36%
    01:00 +19°C° 0 mm 5 mps 670 mmHg 39%
    02:00 +17°C° 0 mm 5 mps 670 mmHg 41%
    03:00 +17°C° 0 mm 5 mps 670 mmHg 42%
    04:00 +16°C° 0 mm 5 mps 670 mmHg 44%
    05:00 +16°C° 0 mm 5 mps 670 mmHg 46%
    06:00 +15°C° 0 mm 5 mps 671 mmHg 49%
    07:00 +15°C° 0 mm 4 mps 671 mmHg 51%
    08:00 +17°C° 0 mm 5 mps 672 mmHg 46%
    09:00 +20°C° 0 mm 6 mps 673 mmHg 41%
    10:00 +22°C° 0 mm 6 mps 673 mmHg 35%
    11:00 +24°C° 0 mm 6 mps 673 mmHg 31%
    12:00 +27°C° 0 mm 5 mps 673 mmHg 28%
    13:00 +29°C° 0 mm 5 mps 672 mmHg 24%
    14:00 +29°C° 0 mm 5 mps 672 mmHg 23%
    15:00 +29°C° 0 mm 4 mps 671 mmHg 22%
    16:00 +29°C° 0 mm 4 mps 671 mmHg 21%
    17:00 +26°C° 0 mm 3 mps 671 mmHg 25%
    18:00 +24°C° 0 mm 3 mps 670 mmHg 29%
    19:00 +20°C° 0 mm 3 mps 670 mmHg 33%
    20:00 +20°C° 0 mm 3 mps 671 mmHg 34%
    21:00 +19°C° 0 mm 3 mps 671 mmHg 35%
    22:00 +18°C° 0 mm 4 mps 671 mmHg 37%
    23:00 +18°C° 0 mm 4 mps 671 mmHg 38%

    Tomorrow, 18 July, Wednesday

    Time Temperature Precipitation Wind Pressure Humidity
    00:00 +17°C° 0 mm 4 mps 671 mmHg 39%
    01:00 +16°C° 0 mm 5 mps 671 mmHg 40%
    02:00 +15°C° 0 mm 5 mps 671 mmHg 42%
    03:00 +15°C° 0 mm 5 mps 671 mmHg 45%
    04:00 +14°C° 0 mm 5 mps 671 mmHg 47%
    05:00 +14°C° 0 mm 5 mps 671 mmHg 48%
    06:00 +13°C° 0 mm 4 mps 671 mmHg 50%
    07:00 +13°C° 0 mm 4 mps 671 mmHg 51%
    08:00 +16°C° 0 mm 5 mps 672 mmHg 44%
    09:00 +19°C° 0 mm 6 mps 673 mmHg 38%
    10:00 +22°C° 0 mm 6 mps 674 mmHg 31%
    11:00 +24°C° 0 mm 6 mps 673 mmHg 28%
    12:00 +26°C° 0 mm 5 mps 673 mmHg 24%
    13:00 +28°C° 0 mm 5 mps 672 mmHg 21%
    14:00 +28°C° 0 mm 4 mps 672 mmHg 20%
    15:00 +28°C° 0 mm 4 mps 671 mmHg 19%
    16:00 +28°C° 0 mm 3 mps 671 mmHg 18%
    17:00 +25°C° 0 mm 3 mps 670 mmHg 22%
    18:00 +22°C° 0 mm 3 mps 670 mmHg 26%
    19:00 +19°C° 0 mm 2 mps 670 mmHg 30%
    20:00 +18°C° 0 mm 3 mps 670 mmHg 33%
    21:00 +17°C° 0 mm 3 mps 671 mmHg 36%
    22:00 +16°C° 0 mm 3 mps 671 mmHg 39%
    23:00 +16°C° 0 mm 3 mps 671 mmHg 41%

    Day after tomorrow, 19 July, Thursday

    Time Temperature Precipitation Wind Pressure Humidity
    00:00 +14°C° 0 mm 3 mps 671 mmHg 43%
    01:00 +14°C° 0 mm 3 mps 671 mmHg 46%
    02:00 +13°C° 0 mm 3 mps 670 mmHg 48%
    03:00 +13°C° 0 mm 4 mps 670 mmHg 50%
    04:00 +12°C° 0 mm 4 mps 670 mmHg 52%
    05:00 +12°C° 0 mm 4 mps 670 mmHg 54%
    06:00 +12°C° 0 mm 3 mps 671 mmHg 55%
    07:00 +11°C° 0 mm 3 mps 671 mmHg 56%
    08:00 +15°C° 0 mm 4 mps 672 mmHg 48%
    09:00 +19°C° 0 mm 5 mps 673 mmHg 39%
    10:00 +22°C° 0 mm 6 mps 673 mmHg 31%
    11:00 +25°C° 0 mm 5 mps 673 mmHg 27%
    12:00 +26°C° 0 mm 5 mps 672 mmHg 24%
    13:00 +28°C° 0 mm 4 mps 672 mmHg 20%
    14:00 +28°C° 0 mm 4 mps 671 mmHg 20%
    15:00 +28°C° 0 mm 4 mps 670 mmHg 19%
    16:00 +28°C° 0 mm 3 mps 670 mmHg 18%
    17:00 +25°C° 0 mm 3 mps 670 mmHg 23%
    18:00 +22°C° 0 mm 3 mps 670 mmHg 27%
    19:00 +19°C° 0 mm 2 mps 669 mmHg 32%
    20:00 +18°C° 0 mm 3 mps 670 mmHg 35%
    21:00 +18°C° 0 mm 3 mps 670 mmHg 39%
    22:00 +17°C° 0 mm 3 mps 670 mmHg 42%
    23:00 +16°C° 0 mm 3 mps 670 mmHg 44%

    20 July, Friday

    Time Temperature Precipitation Wind Pressure Humidity
    00:00 +14°C° 0 mm 3 mps 670 mmHg 46%
    01:00 +14°C° 0 mm 3 mps 669 mmHg 49%
    02:00 +13°C° 0 mm 3 mps 669 mmHg 50%
    03:00 +12°C° 0 mm 3 mps 669 mmHg 52%
    04:00 +12°C° 0 mm 3 mps 669 mmHg 54%
    05:00 +12°C° 0 mm 3 mps 669 mmHg 54%
    06:00 +11°C° 0 mm 3 mps 670 mmHg 54%
    07:00 +11°C° 0 mm 3 mps 670 mmHg 55%
    08:00 +15°C° 0 mm 4 mps 671 mmHg 46%
    09:00 +19°C° 0 mm 5 mps 672 mmHg 37%
    10:00 +23°C° 0 mm 6 mps 673 mmHg 28%
    11:00 +25°C° 0 mm 5 mps 672 mmHg 25%
    12:00 +27°C° 0 mm 4 mps 671 mmHg 22%
    13:00 +28°C° 0 mm 4 mps 671 mmHg 19%
    14:00 +28°C° 0 mm 4 mps 670 mmHg 18%
    15:00 +28°C° 0 mm 3 mps 670 mmHg 18%
    16:00 +28°C° 0 mm 3 mps 669 mmHg 17%
    17:00 +26°C° 0 mm 3 mps 669 mmHg 21%
    18:00 +22°C° 0 mm 3 mps 669 mmHg 25%
    19:00 +20°C° 0 mm 2 mps 669 mmHg 29%
    20:00 +19°C° 0 mm 3 mps 669 mmHg 32%
    21:00 +18°C° 0 mm 3 mps 669 mmHg 35%
    22:00 +17°C° 0 mm 3 mps 669 mmHg 38%
    23:00 +16°C° 0 mm 3 mps 669 mmHg 40%

    21 July, Saturday

    Time Temperature Precipitation Wind Pressure Humidity
    00:00 +16°C° 0 mm 3 mps 669 mmHg 41%
    01:00 +14°C° 0 mm 3 mps 669 mmHg 43%
    02:00 +14°C° 0 mm 3 mps 669 mmHg 45%
    03:00 +13°C° 0 mm 3 mps 669 mmHg 46%
    04:00 +13°C° 0 mm 3 mps 669 mmHg 48%
    05:00 +12°C° 0 mm 3 mps 669 mmHg 49%
    06:00 +12°C° 0 mm 3 mps 670 mmHg 51%
    07:00 +12°C° 0 mm 3 mps 670 mmHg 52%
    08:00 +15°C° 0 mm 4 mps 671 mmHg 44%
    09:00 +20°C° 0 mm 5 mps 672 mmHg 36%
    10:00 +23°C° 0 mm 6 mps 672 mmHg 27%
    11:00 +26°C° 0 mm 6 mps 672 mmHg 24%
    12:00 +28°C° 0 mm 5 mps 671 mmHg 21%
    13:00 +29°C° 0 mm 4 mps 671 mmHg 18%
    14:00 +29°C° 0 mm 4 mps 670 mmHg 17%
    15:00 +30°C° 0 mm 4 mps 670 mmHg 17%
    16:00 +30°C° 0 mm 3 mps 670 mmHg 16%
    17:00 +27°C° 0 mm 3 mps 670 mmHg 20%
    18:00 +24°C° 0 mm 3 mps 670 mmHg 24%
    19:00 +21°C° 0 mm 2 mps 670 mmHg 28%
    20:00 +20°C° 0 mm 3 mps 670 mmHg 31%
    21:00 +19°C° 0 mm 3 mps 670 mmHg 34%
    22:00 +18°C° 0 mm 3 mps 670 mmHg 37%
    23:00 +17°C° 0 mm 3 mps 670 mmHg 38%

    22 July, Sunday

    Time Temperature Precipitation Wind Pressure Humidity
    00:00 +17°C° 0 mm 3 mps 670 mmHg 39%
    01:00 +15°C° 0 mm 4 mps 670 mmHg 41%
    02:00 +15°C° 0 mm 4 mps 670 mmHg 41%
    03:00 +15°C° 0 mm 4 mps 670 mmHg 41%
    04:00 +14°C° 0 mm 4 mps 670 mmHg 41%
    05:00 +14°C° 0 mm 4 mps 670 mmHg 41%
    06:00 +14°C° 0 mm 4 mps 671 mmHg 41%
    07:00 +13°C° 0 mm 4 mps 671 mmHg 41%
    08:00 +17°C° 0 mm 5 mps 672 mmHg 35%
    09:00 +21°C° 0 mm 5 mps 673 mmHg 29%
    10:00 +26°C° 0 mm 6 mps 674 mmHg 23%
    11:00 +27°C° 0 mm 6 mps 673 mmHg 21%
    12:00 +29°C° 0 mm 5 mps 673 mmHg 18%
    13:00 +32°C° 0 mm 5 mps 672 mmHg 16%
    14:00 +32°C° 0 mm 4 mps 672 mmHg 15%
    15:00 +30°C° 0 mm 4 mps 671 mmHg 15%
    16:00 +30°C° 0 mm 3 mps 671 mmHg 15%
    17:00 +28°C° 0 mm 3 mps 671 mmHg 18%
    18:00 +25°C° 0 mm 3 mps 670 mmHg 22%
    19:00 +21°C° 0 mm 2 mps 670 mmHg 26%
    20:00 +20°C° 0 mm 3 mps 670 mmHg 28%
    21:00 +19°C° 0 mm 3 mps 671 mmHg 30%
    22:00 +19°C° 0 mm 3 mps 671 mmHg 32%
    23:00 +18°C° 0 mm 3 mps 671 mmHg 34%
    Show more